Topeka, KS

9:43 PM CDT on October 18, 2019 (GMT -0500)
Billard Municipal

Weather History for KTOP - August, 2019

Change the Weather History Date:

Tuesday, August 6, 2019

  Actual Average Record
Temperature  
Mean Temperature 81 °F 79 °F  
Max Temperature 91 °F 90 °F 109 °F (1934)
Min Temperature 70 °F 68 °F 53 °F (1948)
Degree Days  
Heating Degree Days 0 0  
Month to date heating degree days 0 0  
Since 1 June heating degree days 0 8  
Since 1 July heating degree days 0 0  
Cooling Degree Days 16 14  
Month to date cooling degree days 78 84  
Year to date cooling degree days 957 926  
Since 1 June cooling degree days 845 800  
Growing Degree Days 30 (Base 50)    
Moisture  
Dew Point 71 °F    
Average Humidity 75    
Maximum Humidity 93    
Minimum Humidity 56    
Precipitation  
Precipitation 0.00 in 0.14 in 3.35 in (1903)
Month to date precipitation 1.67 0.80  
Year to date precipitation 30.53 23.13  
Snow  
Snow 0.00 in 0.00 in T in (2014)
Month to date snowfall 0.0 0.0  
Year to date snowfall 18.5 11.3  
Since 1 July snowfall 0.0 0.0  
Snow Depth 0.00 in    
Sea Level Pressure  
Sea Level Pressure 29.89 in    
Wind  
Wind Speed 4 mph (NNW)    
Max Wind Speed 9 mph    
Max Gust Speed 14 mph    
Visibility 10 miles    
Events      
T = Trace of Precipitation, MM = Missing Value Source: NWS Daily Summary

Daily Weather History Graph

Daily Weather History Graph

Search for Another Location

Airport or City:

Astronomy

Aug. 06, 2019 Rise Set
Actual Time 6:27 AM CDT 8:28 PM CDT
Civil Twilight 5:58 AM CDT 8:58 PM CDT
Nautical Twilight 5:22 AM CDT 9:33 PM CDT
Astronomical Twilight 4:43 AM CDT 10:12 PM CDT
Moon 12:50 PM CDT (8/6) No Moon Set
Length of Visible Light 15h 00m
Length of Day
14h 01m
Waxing Crescent, 39% of the Moon is Illuminated
Aug 6
Waxing Crescent
Aug 7
First Quarter
Aug 15
Full
Aug 23
Last Quarter
Aug 30
New

Hourly Weather History & Observations

Time (CDT) Temp. Heat Index Dew Point Humidity Pressure Visibility Wind Dir Wind Speed Gust Speed Precip Events Conditions
12:53 AM 75.0 °F - 70.0 °F 84% 29.88 in 10.0 mi Calm Calm - N/A   Clear
1:53 AM 73.9 °F - 70.0 °F 87% 29.89 in 10.0 mi Calm Calm - N/A   Clear
2:53 AM 73.0 °F - 70.0 °F 90% 29.89 in 9.0 mi Calm Calm - N/A   Clear
3:53 AM 73.9 °F - 70.0 °F 87% 29.89 in 10.0 mi WSW 3.5 mph - N/A   Clear
4:53 AM 73.9 °F - 71.1 °F 91% 29.90 in 10.0 mi WSW 4.6 mph - N/A   Scattered Clouds
5:53 AM 73.0 °F - 70.0 °F 90% 29.89 in 10.0 mi Calm Calm - N/A   Clear
6:14 AM 71.1 °F - 69.1 °F 93% 29.92 in 2.5 mi Calm Calm - N/A   Clear
6:24 AM 71.1 °F - 69.1 °F 93% 29.92 in 3.0 mi Calm Calm - N/A   Clear
6:53 AM 72.0 °F - 70.0 °F 93% 29.91 in 10.0 mi NW 4.6 mph - N/A   Clear
7:53 AM 75.0 °F - 70.0 °F 84% 29.91 in 10.0 mi West 3.5 mph - N/A   Clear
8:53 AM 79.0 °F - 72.0 °F 79% 29.91 in 10.0 mi WNW 4.6 mph - N/A   Clear
9:53 AM 82.9 °F 88.0 °F 72.0 °F 69% 29.91 in 10.0 mi NNW 4.6 mph - N/A   Clear
10:53 AM 84.9 °F 91.4 °F 73.0 °F 67% 29.92 in 10.0 mi NW 6.9 mph - N/A   Clear
11:53 AM 88.0 °F 95.6 °F 73.0 °F 61% 29.91 in 10.0 mi Variable 3.5 mph - N/A   Clear
12:53 PM 89.1 °F 97.0 °F 73.0 °F 59% 29.91 in 10.0 mi North 4.6 mph - N/A   Partly Cloudy
1:53 PM 90.0 °F 99.0 °F 73.9 °F 59% 29.90 in 10.0 mi NNW 5.8 mph - N/A   Mostly Cloudy
2:53 PM 91.0 °F 99.3 °F 73.0 °F 55% 29.89 in 10.0 mi NNW 5.8 mph - N/A   Clear
3:53 PM 91.0 °F 99.3 °F 73.0 °F 55% 29.87 in 10.0 mi North 8.1 mph - N/A   Clear
4:53 PM 90.0 °F 96.9 °F 72.0 °F 55% 29.86 in 10.0 mi NNE 4.6 mph - N/A   Clear
5:53 PM 90.0 °F 96.9 °F 72.0 °F 55% 29.85 in 10.0 mi North 5.8 mph - N/A   Clear
6:53 PM 88.0 °F 93.8 °F 71.1 °F 57% 29.83 in 10.0 mi NE 6.9 mph - N/A   Clear
7:53 PM 82.9 °F 87.0 °F 70.0 °F 65% 29.83 in 10.0 mi NE 5.8 mph - N/A   Clear
8:53 PM 80.1 °F 82.9 °F 69.1 °F 69% 29.85 in 10.0 mi ENE 4.6 mph - N/A   Clear
9:53 PM 78.1 °F - 68.0 °F 71% 29.87 in 10.0 mi Calm Calm - N/A   Clear
10:53 PM 75.0 °F - 69.1 °F 82% 29.89 in 10.0 mi Calm Calm - N/A   Clear
11:53 PM 75.9 °F - 69.1 °F 79% 29.88 in 10.0 mi Calm Calm - N/A   Mostly Cloudy